Change the Weather History Date:

Wednesday, March 19, 2014

  Actual Average Record
Temperature  
Mean Temperature 33 °F 40 °F  
Max Temperature 53 °F 56 °F 72 °F (2007)
Min Temperature 12 °F 24 °F 12 °F (2002)
Degree Days  
Heating Degree Days 32 25  
Month to date heating degree days 472 519  
Since 1 July heating degree days 5056 5249  
Cooling Degree Days 0 0  
Month to date cooling degree days 0 0  
Year to date cooling degree days 0 0  
Moisture  
Dew Point 7 °F    
Average Humidity 45    
Maximum Humidity 76    
Minimum Humidity 13    
Precipitation  
Precipitation 0.00 in 0.03 in 0.10 in (2005)
Month to date precipitation 0.20 0.76  
Year to date precipitation 1.04 2.65  
Sea Level Pressure  
Sea Level Pressure 30.20 in    
Wind  
Wind Speed 5 mph (ENE)    
Max Wind Speed 15 mph    
Max Gust Speed 21 mph    
Visibility 10 miles    
Events      
T = Trace of Precipitation, MM = Missing Value Source: NWS Daily Summary

Daily Weather History Graph

Daily Weather History Graph

Search for Another Location

Airport or City:

Trip Planner

Search our weather history database for the weather conditions in past years. The results will help you decide how hot, cold, wet, or windy it might be!

Date:

Astronomy

Mar. 19, 2014 Rise Set
Actual Time 7:19 AM MDT 7:25 PM MDT
Civil Twilight 6:53 AM MDT 7:51 PM MDT
Nautical Twilight 6:23 AM MDT 8:21 PM MDT
Astronomical Twilight 5:52 AM MDT 8:52 PM MDT
Moon 10:42 PM MDT (3/19) 8:51 AM MDT (3/19)
Length of Visible Light 12h 58m
Length of Day
12h 06m
Waning Gibbous, 91% of the Moon is Illuminated
Mar 19
Waning Gibbous
Mar 23
Last Quarter
Mar 30
New
Apr 7
First Quarter
Apr 15
Full

Hourly Weather History & Observations

Time (MDT) Temp. Windchill Dew Point Humidity Pressure Visibility Wind Dir Wind Speed Gust Speed Precip Events Conditions
12:53 AM 19.9 °F 13.4 °F 10.0 °F 65% 30.07 in 10.0 mi East 4.6 mph - N/A   Clear
1:53 AM 18.0 °F 9.8 °F 9.0 °F 68% 30.10 in 10.0 mi NE 5.8 mph - N/A   Clear
2:53 AM 17.1 °F 10.0 °F 9.0 °F 71% 30.11 in 10.0 mi East 4.6 mph - N/A   Clear
3:53 AM 17.1 °F 10.0 °F 8.1 °F 68% 30.12 in 10.0 mi East 4.6 mph - N/A   Clear
4:53 AM 16.0 °F 8.8 °F 8.1 °F 71% 30.15 in 10.0 mi East 4.6 mph - N/A   Clear
5:53 AM 14.0 °F 8.2 °F 7.0 °F 74% 30.18 in 10.0 mi NE 3.5 mph - N/A   Clear
6:53 AM 12.9 °F 3.8 °F 7.0 °F 77% 30.22 in 10.0 mi ENE 5.8 mph - N/A   Clear
7:53 AM 15.1 °F 6.4 °F 8.1 °F 74% 30.26 in 10.0 mi NE 5.8 mph - N/A   Clear
8:53 AM 26.1 °F - 14.0 °F 60% 30.27 in 10.0 mi Calm Calm - N/A   Clear
9:53 AM 35.1 °F - 12.9 °F 40% 30.26 in 10.0 mi Calm Calm - N/A   Clear
10:53 AM 41.0 °F - 10.9 °F 29% 30.25 in 10.0 mi Calm Calm - N/A   Clear
11:53 AM 45.0 °F - 9.0 °F 23% 30.25 in 10.0 mi North - - N/A   Clear
12:53 PM 46.0 °F - 8.1 °F 21% 30.24 in 10.0 mi Calm Calm - N/A   Clear
1:53 PM 48.0 °F - 8.1 °F 20% 30.21 in 10.0 mi North - - N/A   Clear
2:53 PM 50.0 °F - 7.0 °F 18% 30.18 in 10.0 mi Variable 3.5 mph - N/A   Clear
3:53 PM 50.0 °F - 8.1 °F 18% 30.16 in 10.0 mi SSW 6.9 mph - N/A   Clear
4:53 PM 51.1 °F - 5.0 °F 15% 30.16 in 10.0 mi SW 8.1 mph - N/A   Clear
5:53 PM 50.0 °F - 1.9 °F 14% 30.19 in 10.0 mi West 6.9 mph - N/A   Clear
6:53 PM 46.9 °F - 1.0 °F 15% 30.22 in 10.0 mi WNW 11.5 mph - N/A   Clear
7:53 PM 37.0 °F - 1.0 °F 22% 30.26 in 10.0 mi Calm Calm - N/A   Clear
8:53 PM 30.0 °F 25.2 °F 6.1 °F 36% 30.27 in 10.0 mi Variable 4.6 mph - N/A   Clear
9:53 PM 28.0 °F 19.3 °F 5.0 °F 38% 30.25 in 10.0 mi ENE 9.2 mph - N/A   Clear
10:53 PM 24.1 °F 16.0 °F 5.0 °F 44% 30.24 in 10.0 mi ENE 6.9 mph - N/A   Clear
11:53 PM 21.9 °F 14.5 °F 6.1 °F 51% 30.24 in 10.0 mi ENE 5.8 mph - N/A   Clear